�v������,�v���f�[�^(m3),�t���O,�K�X�S�́mMJ�n,�t���O,�K�X�����mMJ�n,�t���O,�K�X�����mMJ�n,�t���O
2002/11/1 0:00,0,0,0,0,0,0,0,0
2002/11/1 0:15,0,0,0,0,0,0,0,0
2002/11/1 0:30,0,0,0,0,0,0,0,0
2002/11/1 0:45,0,0,0,0,0,0,0,0
2002/11/1 1:00,0,0,0,0,0,0,0,0
2002/11/1 1:15,0,0,0,0,0,0,0,0
2002/11/1 1:30,0,0,0,0,0,0,0,0
2002/11/1 1:45,0,0,0,0,0,0,0,0
2002/11/1 2:00,0,0,0,0,0,0,0,0
2002/11/1 2:15,0,0,0,0,0,0,0,0
2002/11/1 2:30,0,0,0,0,0,0,0,0
2002/11/1 2:45,0,0,0,0,0,0,0,0
2002/11/1 3:00,0,0,0,0,0,0,0,0
2002/11/1 3:15,0,0,0,0,0,0,0,0
2002/11/1 3:30,0,0,0,0,0,0,0,0
2002/11/1 3:45,0,0,0,0,0,0,0,0
2002/11/1 4:00,0,0,0,0,0,0,0,0
2002/11/1 4:15,0,0,0,0,0,0,0,0
2002/11/1 4:30,0,0,0,0,0,0,0,0
2002/11/1 4:45,0,0,0,0,0,0,0,0
2002/11/1 5:00,0,0,0,0,0,0,0,0
2002/11/1 5:15,0,0,0,0,0,0,0,0
2002/11/1 5:30,0,0,0,0,0,0,0,0
2002/11/1 5:45,0,0,0,0,0,0,0,0
2002/11/1 6:00,0.04,0,22.10208,0,22.10208,0,0,0
2002/11/1 6:15,0.004,0,2.210208,0,0,0,2.210208,0
2002/11/1 6:30,0,0,0,0,0,0,0,0
2002/11/1 6:45,0,0,0,0,0,0,0,0
2002/11/1 7:00,0,0,0,0,0,0,0,0
2002/11/1 7:15,0,0,0,0,0,0,0,0
2002/11/1 7:30,0,0,0,0,0,0,0,0
2002/11/1 7:45,0,0,0,0,0,0,0,0
2002/11/1 8:00,0,0,0,0,0,0,0,0
2002/11/1 8:15,0,0,0,0,0,0,0,0
2002/11/1 8:30,0.002,0,1.105104,0,0,0,1.105104,0
2002/11/1 8:45,0,0,0,0,0,0,0,0
2002/11/1 9:00,0,0,0,0,0,0,0,0
2002/11/1 9:15,0,0,0,0,0,0,0,0
2002/11/1 9:30,0,0,0,0,0,0,0,0
2002/11/1 9:45,0,0,0,0,0,0,0,0
2002/11/1 10:00,0,0,0,0,0,0,0,0
2002/11/1 10:15,0,0,0,0,0,0,0,0
2002/11/1 10:30,0,0,0,0,0,0,0,0
2002/11/1 10:45,0,0,0,0,0,0,0,0
2002/11/1 11:00,0,0,0,0,0,0,0,0
2002/11/1 11:15,0,0,0,0,0,0,0,0
2002/11/1 11:30,0,0,0,0,0,0,0,0
2002/11/1 11:45,0,0,0,0,0,0,0,0
2002/11/1 12:00,0,0,0,0,0,0,0,0
2002/11/1 12:15,0,0,0,0,0,0,0,0
2002/11/1 12:30,0,0,0,0,0,0,0,0
2002/11/1 12:45,0,0,0,0,0,0,0,0
2002/11/1 13:00,0,0,0,0,0,0,0,0
2002/11/1 13:15,0,0,0,0,0,0,0,0
2002/11/1 13:30,0,0,0,0,0,0,0,0
2002/11/1 13:45,0.002,0,1.105104,0,0,0,1.105104,0
2002/11/1 14:00,0.008,0,4.420416,0,0,0,4.420416,0
2002/11/1 14:15,0.022,0,12.156144,0,6.630624,0,5.52552,0
2002/11/1 14:30,0.01,0,5.52552,0,0,0,5.52552,0
2002/11/1 14:45,0,0,0,0,0,0,0,0
2002/11/1 15:00,0,0,0,0,0,0,0,0
2002/11/1 15:15,0,0,0,0,0,0,0,0
2002/11/1 15:30,0,0,0,0,0,0,0,0
2002/11/1 15:45,0,0,0,0,0,0,0,0
2002/11/1 16:00,0,0,0,0,0,0,0,0
2002/11/1 16:15,0,0,0,0,0,0,0,0
2002/11/1 16:30,0,0,0,0,0,0,0,0
2002/11/1 16:45,0,0,0,0,0,0,0,0
2002/11/1 17:00,0,0,0,0,0,0,0,0
2002/11/1 17:15,0,0,0,0,0,0,0,0
2002/11/1 17:30,0,0,0,0,0,0,0,0
2002/11/1 17:45,0.016,0,8.840832,0,6.630624,0,2.210208,0
2002/11/1 18:00,0.066,0,36.468432,0,36.468432,0,0,0
2002/11/1 18:15,0.072,0,39.783744,0,39.783744,0,0,0
2002/11/1 18:30,0.016,0,8.840832,0,6.630624,0,2.210208,0
2002/11/1 18:45,0.014,0,7.735728,0,0,0,7.735728,0
2002/11/1 19:00,0.002,0,1.105104,0,0,0,1.105104,0
2002/11/1 19:15,0,0,0,0,0,0,0,0
2002/11/1 19:30,0,0,0,0,0,0,0,0
2002/11/1 19:45,0,0,0,0,0,0,0,0
2002/11/1 20:00,0,0,0,0,0,0,0,0
2002/11/1 20:15,0,0,0,0,0,0,0,0
2002/11/1 20:30,0,0,0,0,0,0,0,0
2002/11/1 20:45,0,0,0,0,0,0,0,0
2002/11/1 21:00,0,0,0,0,0,0,0,0
2002/11/1 21:15,0,0,0,0,0,0,0,0
2002/11/1 21:30,0,0,0,0,0,0,0,0
2002/11/1 21:45,0,0,0,0,0,0,0,0
2002/11/1 22:00,0,0,0,0,0,0,0,0
2002/11/1 22:15,0.024,0,13.261248,0,13.261248,0,0,0
2002/11/1 22:30,0.006,0,3.315312,0,0,0,3.315312,0
2002/11/1 22:45,0,0,0,0,0,0,0,0
2002/11/1 23:00,0,0,0,0,0,0,0,0
2002/11/1 23:15,0,0,0,0,0,0,0,0
2002/11/1 23:30,0.012,0,6.630624,0,0,0,6.630624,0
2002/11/1 23:45,0.006,0,3.315312,0,0,0,3.315312,0
2002/11/2 0:00,0,0,0,0,0,0,0,0
2002/11/2 0:15,0,0,0,0,0,0,0,0
2002/11/2 0:30,0,0,0,0,0,0,0,0
2002/11/2 0:45,0,0,0,0,0,0,0,0
2002/11/2 1:00,0,0,0,0,0,0,0,0
2002/11/2 1:15,0,0,0,0,0,0,0,0
2002/11/2 1:30,0,0,0,0,0,0,0,0
2002/11/2 1:45,0,0,0,0,0,0,0,0
2002/11/2 2:00,0,0,0,0,0,0,0,0
2002/11/2 2:15,0,0,0,0,0,0,0,0
2002/11/2 2:30,0,0,0,0,0,0,0,0
2002/11/2 2:45,0,0,0,0,0,0,0,0
2002/11/2 3:00,0,0,0,0,0,0,0,0
2002/11/2 3:15,0,0,0,0,0,0,0,0
2002/11/2 3:30,0,0,0,0,0,0,0,0
2002/11/2 3:45,0,0,0,0,0,0,0,0
2002/11/2 4:00,0,0,0,0,0,0,0,0
2002/11/2 4:15,0,0,0,0,0,0,0,0
2002/11/2 4:30,0,0,0,0,0,0,0,0
2002/11/2 4:45,0,0,0,0,0,0,0,0
2002/11/2 5:00,0,0,0,0,0,0,0,0
2002/11/2 5:15,0,0,0,0,0,0,0,0
2002/11/2 5:30,0,0,0,0,0,0,0,0
2002/11/2 5:45,0,0,0,0,0,0,0,0
2002/11/2 6:00,0.022,0,12.156144,0,6.630624,0,5.52552,0
2002/11/2 6:15,0,0,0,0,0,0,0,0
2002/11/2 6:30,0,0,0,0,0,0,0,0
2002/11/2 6:45,0.024,0,13.261248,0,8.840832,0,4.420416,0
2002/11/2 7:00,0.004,0,2.210208,0,0,0,2.210208,0
2002/11/2 7:15,0.058,0,32.048016,0,27.6276,0,4.420416,0
2002/11/2 7:30,0.032,0,17.681664,0,15.471456,0,2.210208,0
2002/11/2 7:45,0.006,0,3.315312,0,0,0,3.315312,0
2002/11/2 8:00,0,0,0,0,0,0,0,0
2002/11/2 8:15,0,0,0,0,0,0,0,0
2002/11/2 8:30,0,0,0,0,0,0,0,0
2002/11/2 8:45,0,0,0,0,0,0,0,0
2002/11/2 9:00,0,0,0,0,0,0,0,0
2002/11/2 9:15,0,0,0,0,0,0,0,0
2002/11/2 9:30,0,0,0,0,0,0,0,0
2002/11/2 9:45,0,0,0,0,0,0,0,0
2002/11/2 10:00,0,0,0,0,0,0,0,0
2002/11/2 10:15,0,0,0,0,0,0,0,0
2002/11/2 10:30,0,0,0,0,0,0,0,0
2002/11/2 10:45,0,0,0,0,0,0,0,0
2002/11/2 11:00,0,0,0,0,0,0,0,0
2002/11/2 11:15,0,0,0,0,0,0,0,0
2002/11/2 11:30,0,0,0,0,0,0,0,0
2002/11/2 11:45,0,0,0,0,0,0,0,0
2002/11/2 12:00,0,0,0,0,0,0,0,0
2002/11/2 12:15,0,0,0,0,0,0,0,0
2002/11/2 12:30,0,0,0,0,0,0,0,0
2002/11/2 12:45,0,0,0,0,0,0,0,0
2002/11/2 13:00,0,0,0,0,0,0,0,0
2002/11/2 13:15,0,0,0,0,0,0,0,0
2002/11/2 13:30,0,0,0,0,0,0,0,0
2002/11/2 13:45,0,0,0,0,0,0,0,0
2002/11/2 14:00,0,0,0,0,0,0,0,0
2002/11/2 14:15,0,0,0,0,0,0,0,0
2002/11/2 14:30,0,0,0,0,0,0,0,0
2002/11/2 14:45,0,0,0,0,0,0,0,0
2002/11/2 15:00,0,0,0,0,0,0,0,0
2002/11/2 15:15,0,0,0,0,0,0,0,0
2002/11/2 15:30,0,0,0,0,0,0,0,0
2002/11/2 15:45,0,0,0,0,0,0,0,0
2002/11/2 16:00,0,0,0,0,0,0,0,0
2002/11/2 16:15,0,0,0,0,0,0,0,0
2002/11/2 16:30,0.016,0,8.840832,0,6.630624,0,2.210208,0
2002/11/2 16:45,0.068,0,37.573536,0,37.573536,0,0,0
2002/11/2 17:00,0.034,0,18.786768,0,9.945936,0,8.840832,0
2002/11/2 17:15,0.012,0,6.630624,0,0,0,6.630624,0
2002/11/2 17:30,0.006,0,3.315312,0,0,0,3.315312,0
2002/11/2 17:45,0.002,0,1.105104,0,0,0,1.105104,0
2002/11/2 18:00,0,0,0,0,0,0,0,0
2002/11/2 18:15,0,0,0,0,0,0,0,0
2002/11/2 18:30,0,0,0,0,0,0,0,0
2002/11/2 18:45,0,0,0,0,0,0,0,0
2002/11/2 19:00,0,0,0,0,0,0,0,0
2002/11/2 19:15,0,0,0,0,0,0,0,0
2002/11/2 19:30,0,0,0,0,0,0,0,0
2002/11/2 19:45,0.01,0,5.52552,0,5.52552,0,0,0
2002/11/2 20:00,0.082,0,45.309264,0,43.099056,0,2.210208,0
2002/11/2 20:15,0.058,0,32.048016,0,28.732704,0,3.315312,0
2002/11/2 20:30,0,0,0,0,0,0,0,0
2002/11/2 20:45,0,0,0,0,0,0,0,0
2002/11/2 21:00,0,0,0,0,0,0,0,0
2002/11/2 21:15,0,0,0,0,0,0,0,0
2002/11/2 21:30,0,0,0,0,0,0,0,0
2002/11/2 21:45,0,0,0,0,0,0,0,0
2002/11/2 22:00,0,0,0,0,0,0,0,0
2002/11/2 22:15,0,0,0,0,0,0,0,0
2002/11/2 22:30,0,0,0,0,0,0,0,0
2002/11/2 22:45,0,0,0,0,0,0,0,0
2002/11/2 23:00,0,0,0,0,0,0,0,0
2002/11/2 23:15,0,0,0,0,0,0,0,0
2002/11/2 23:30,0,0,0,0,0,0,0,0
2002/11/2 23:45,0,0,0,0,0,0,0,0
2002/11/3 0:00,0,0,0,0,0,0,0,0
2002/11/3 0:15,0,0,0,0,0,0,0,0
2002/11/3 0:30,0,0,0,0,0,0,0,0
2002/11/3 0:45,0,0,0,0,0,0,0,0
2002/11/3 1:00,0,0,0,0,0,0,0,0
2002/11/3 1:15,0,0,0,0,0,0,0,0
2002/11/3 1:30,0,0,0,0,0,0,0,0
2002/11/3 1:45,0,0,0,0,0,0,0,0
2002/11/3 2:00,0,0,0,0,0,0,0,0
2002/11/3 2:15,0,0,0,0,0,0,0,0
2002/11/3 2:30,0,0,0,0,0,0,0,0
2002/11/3 2:45,0,0,0,0,0,0,0,0
2002/11/3 3:00,0,0,0,0,0,0,0,0
2002/11/3 3:15,0,0,0,0,0,0,0,0
2002/11/3 3:30,0,0,0,0,0,0,0,0
2002/11/3 3:45,0,0,0,0,0,0,0,0
2002/11/3 4:00,0,0,0,0,0,0,0,0
2002/11/3 4:15,0,0,0,0,0,0,0,0
2002/11/3 4:30,0,0,0,0,0,0,0,0
2002/11/3 4:45,0,0,0,0,0,0,0,0
2002/11/3 5:00,0,0,0,0,0,0,0,0
2002/11/3 5:15,0.002,0,1.105104,0,0,0,1.105104,0
2002/11/3 5:30,0.002,0,1.105104,0,0,0,1.105104,0
2002/11/3 5:45,0.022,0,12.156144,0,6.630624,0,5.52552,0
2002/11/3 6:00,0.006,0,3.315312,0,0,0,3.315312,0
2002/11/3 6:15,0.022,0,12.156144,0,4.420416,0,7.735728,0
2002/11/3 6:30,0.008,0,4.420416,0,0,0,4.420416,0
2002/11/3 6:45,0.008,0,4.420416,0,4.420416,0,0,0
2002/11/3 7:00,0,0,0,0,0,0,0,0
2002/11/3 7:15,0,0,0,0,0,0,0,0
2002/11/3 7:30,0.002,0,1.105104,0,0,0,1.105104,0
2002/11/3 7:45,0.002,0,1.105104,0,0,0,1.105104,0
2002/11/3 8:00,0.002,0,1.105104,0,0,0,1.105104,0
2002/11/3 8:15,0,0,0,0,0,0,0,0
2002/11/3 8:30,0,0,0,0,0,0,0,0
2002/11/3 8:45,0,0,0,0,0,0,0,0
2002/11/3 9:00,0,0,0,0,0,0,0,0
2002/11/3 9:15,0,0,0,0,0,0,0,0
2002/11/3 9:30,0,0,0,0,0,0,0,0
2002/11/3 9:45,0.004,0,2.210208,0,0,0,2.210208,0
2002/11/3 10:00,0,0,0,0,0,0,0,0
2002/11/3 10:15,0,0,0,0,0,0,0,0
2002/11/3 10:30,0,0,0,0,0,0,0,0
2002/11/3 10:45,0,0,0,0,0,0,0,0
2002/11/3 11:00,0,0,0,0,0,0,0,0
2002/11/3 11:15,0,0,0,0,0,0,0,0
2002/11/3 11:30,0,0,0,0,0,0,0,0
2002/11/3 11:45,0,0,0,0,0,0,0,0
2002/11/3 12:00,0,0,0,0,0,0,0,0
2002/11/3 12:15,0,0,0,0,0,0,0,0
2002/11/3 12:30,0,0,0,0,0,0,0,0
2002/11/3 12:45,0,0,0,0,0,0,0,0
2002/11/3 13:00,0,0,0,0,0,0,0,0
2002/11/3 13:15,0,0,0,0,0,0,0,0
2002/11/3 13:30,0,0,0,0,0,0,0,0
2002/11/3 13:45,0,0,0,0,0,0,0,0
2002/11/3 14:00,0,0,0,0,0,0,0,0
2002/11/3 14:15,0,0,0,0,0,0,0,0
2002/11/3 14:30,0,0,0,0,0,0,0,0
2002/11/3 14:45,0,0,0,0,0,0,0,0
2002/11/3 15:00,0,0,0,0,0,0,0,0
2002/11/3 15:15,0,0,0,0,0,0,0,0
2002/11/3 15:30,0,0,0,0,0,0,0,0
2002/11/3 15:45,0,0,0,0,0,0,0,0
2002/11/3 16:00,0,0,0,0,0,0,0,0
2002/11/3 16:15,0,0,0,0,0,0,0,0
2002/11/3 16:30,0,0,0,0,0,0,0,0
2002/11/3 16:45,0,0,0,0,0,0,0,0
2002/11/3 17:00,0,0,0,0,0,0,0,0
2002/11/3 17:15,0,0,0,0,0,0,0,0
2002/11/3 17:30,0,0,0,0,0,0,0,0
2002/11/3 17:45,0,0,0,0,0,0,0,0
2002/11/3 18:00,0,0,0,0,0,0,0,0
2002/11/3 18:15,0.044,0,24.312288,0,22.10208,0,2.210208,0
2002/11/3 18:30,0.07,0,38.67864,0,34.258224,0,4.420416,0
2002/11/3 18:45,0.056,0,30.942912,0,26.522496,0,4.420416,0
2002/11/3 19:00,0.062,0,34.258224,0,30.942912,0,3.315312,0
2002/11/3 19:15,0.018,0,9.945936,0,9.945936,0,0,0
2002/11/3 19:30,0.002,0,1.105104,0,0,0,1.105104,0
2002/11/3 19:45,0,0,0,0,0,0,0,0
2002/11/3 20:00,0,0,0,0,0,0,0,0
2002/11/3 20:15,0,0,0,0,0,0,0,0
2002/11/3 20:30,0,0,0,0,0,0,0,0
2002/11/3 20:45,0,0,0,0,0,0,0,0
2002/11/3 21:00,0,0,0,0,0,0,0,0
2002/11/3 21:15,0.046,0,25.417392,0,25.417392,0,0,0
2002/11/3 21:30,0.002,0,1.105104,0,0,0,1.105104,0
2002/11/3 21:45,0,0,0,0,0,0,0,0
2002/11/3 22:00,0,0,0,0,0,0,0,0
2002/11/3 22:15,0,0,0,0,0,0,0,0
2002/11/3 22:30,0,0,0,0,0,0,0,0
2002/11/3 22:45,0,0,0,0,0,0,0,0
2002/11/3 23:00,0,0,0,0,0,0,0,0
2002/11/3 23:15,0,0,0,0,0,0,0,0
2002/11/3 23:30,0,0,0,0,0,0,0,0
2002/11/3 23:45,0,0,0,0,0,0,0,0
2002/11/4 0:00,0,0,0,0,0,0,0,0
2002/11/4 0:15,0,0,0,0,0,0,0,0
2002/11/4 0:30,0,0,0,0,0,0,0,0
2002/11/4 0:45,0,0,0,0,0,0,0,0
2002/11/4 1:00,0,0,0,0,0,0,0,0
2002/11/4 1:15,0,0,0,0,0,0,0,0
2002/11/4 1:30,0,0,0,0,0,0,0,0
2002/11/4 1:45,0,0,0,0,0,0,0,0
2002/11/4 2:00,0,0,0,0,0,0,0,0
2002/11/4 2:15,0,0,0,0,0,0,0,0
2002/11/4 2:30,0,0,0,0,0,0,0,0
2002/11/4 2:45,0,0,0,0,0,0,0,0
2002/11/4 3:00,0,0,0,0,0,0,0,0
2002/11/4 3:15,0,0,0,0,0,0,0,0
2002/11/4 3:30,0,0,0,0,0,0,0,0
2002/11/4 3:45,0,0,0,0,0,0,0,0
2002/11/4 4:00,0,0,0,0,0,0,0,0
2002/11/4 4:15,0,0,0,0,0,0,0,0
2002/11/4 4:30,0,0,0,0,0,0,0,0
2002/11/4 4:45,0,0,0,0,0,0,0,0
2002/11/4 5:00,0,0,0,0,0,0,0,0
2002/11/4 5:15,0,0,0,0,0,0,0,0
2002/11/4 5:30,0,0,0,0,0,0,0,0
2002/11/4 5:45,0.018,0,9.945936,0,8.840832,0,1.105104,0
2002/11/4 6:00,0.006,0,3.315312,0,0,0,3.315312,0
2002/11/4 6:15,0.002,0,1.105104,0,0,0,1.105104,0
2002/11/4 6:30,0,0,0,0,0,0,0,0
2002/11/4 6:45,0.004,0,2.210208,0,0,0,2.210208,0
2002/11/4 7:00,0.004,0,2.210208,0,0,0,2.210208,0
2002/11/4 7:15,0,0,0,0,0,0,0,0
2002/11/4 7:30,0,0,0,0,0,0,0,0
2002/11/4 7:45,0,0,0,0,0,0,0,0
2002/11/4 8:00,0,0,0,0,0,0,0,0
2002/11/4 8:15,0,0,0,0,0,0,0,0
2002/11/4 8:30,0,0,0,0,0,0,0,0
2002/11/4 8:45,0,0,0,0,0,0,0,0
2002/11/4 9:00,0,0,0,0,0,0,0,0
2002/11/4 9:15,0,0,0,0,0,0,0,0
2002/11/4 9:30,0,0,0,0,0,0,0,0
2002/11/4 9:45,0,0,0,0,0,0,0,0
2002/11/4 10:00,0,0,0,0,0,0,0,0
2002/11/4 10:15,0,0,0,0,0,0,0,0
2002/11/4 10:30,0,0,0,0,0,0,0,0
2002/11/4 10:45,0,0,0,0,0,0,0,0
2002/11/4 11:00,0,0,0,0,0,0,0,0
2002/11/4 11:15,0.002,0,1.105104,0,0,0,1.105104,0
2002/11/4 11:30,0,0,0,0,0,0,0,0
2002/11/4 11:45,0,0,0,0,0,0,0,0
2002/11/4 12:00,0.004,0,2.210208,0,0,0,2.210208,0
2002/11/4 12:15,0,0,0,0,0,0,0,0
2002/11/4 12:30,0,0,0,0,0,0,0,0
2002/11/4 12:45,0,0,0,0,0,0,0,0
2002/11/4 13:00,0,0,0,0,0,0,0,0
2002/11/4 13:15,0,0,0,0,0,0,0,0
2002/11/4 13:30,0,0,0,0,0,0,0,0
2002/11/4 13:45,0,0,0,0,0,0,0,0
2002/11/4 14:00,0,0,0,0,0,0,0,0
2002/11/4 14:15,0,0,0,0,0,0,0,0
2002/11/4 14:30,0,0,0,0,0,0,0,0
2002/11/4 14:45,0,0,0,0,0,0,0,0
2002/11/4 15:00,0,0,0,0,0,0,0,0
2002/11/4 15:15,0,0,0,0,0,0,0,0
2002/11/4 15:30,0,0,0,0,0,0,0,0
2002/11/4 15:45,0,0,0,0,0,0,0,0
2002/11/4 16:00,0,0,0,0,0,0,0,0
2002/11/4 16:15,0,0,0,0,0,0,0,0
2002/11/4 16:30,0,0,0,0,0,0,0,0
2002/11/4 16:45,0,0,0,0,0,0,0,0
2002/11/4 17:00,0,0,0,0,0,0,0,0
2002/11/4 17:15,0,0,0,0,0,0,0,0
2002/11/4 17:30,0,0,0,0,0,0,0,0
2002/11/4 17:45,0,0,0,0,0,0,0,0
2002/11/4 18:00,0,0,0,0,0,0,0,0
2002/11/4 18:15,0,0,0,0,0,0,0,0
2002/11/4 18:30,0,0,0,0,0,0,0,0
2002/11/4 18:45,0,0,0,0,0,0,0,0
2002/11/4 19:00,0,0,0,0,0,0,0,0
2002/11/4 19:15,0,0,0,0,0,0,0,0
2002/11/4 19:30,0.088,0,48.624576,0,48.624576,0,0,0
2002/11/4 19:45,0,0,0,0,0,0,0,0
2002/11/4 20:00,0.054,0,29.837808,0,28.732704,0,1.105104,0
2002/11/4 20:15,0.084,0,46.414368,0,46.414368,0,0,0
2002/11/4 20:30,0.014,0,7.735728,0,5.52552,0,2.210208,0
2002/11/4 20:45,0.006,0,3.315312,0,0,0,3.315312,0
2002/11/4 21:00,0.006,0,3.315312,0,0,0,3.315312,0
2002/11/4 21:15,0.008,0,4.420416,0,0,0,4.420416,0
2002/11/4 21:30,0.006,0,3.315312,0,0,0,3.315312,0
2002/11/4 21:45,0.012,0,6.630624,0,0,0,6.630624,0
2002/11/4 22:00,0.01,0,5.52552,0,0,0,5.52552,0
2002/11/4 22:15,0.01,0,5.52552,0,0,0,5.52552,0
2002/11/4 22:30,0.01,0,5.52552,0,0,0,5.52552,0
2002/11/4 22:45,0.01,0,5.52552,0,0,0,5.52552,0
2002/11/4 23:00,0.012,0,6.630624,0,0,0,6.630624,0
2002/11/4 23:15,0.008,0,4.420416,0,0,0,4.420416,0
2002/11/4 23:30,0.046,0,25.417392,0,25.417392,0,0,0
2002/11/4 23:45,0.048,0,26.522496,0,26.522496,0,0,0
2002/11/5 0:00,0.046,0,25.417392,0,25.417392,0,0,0
2002/11/5 0:15,0,0,0,0,0,0,0,0
2002/11/5 0:30,0,0,0,0,0,0,0,0
2002/11/5 0:45,0,0,0,0,0,0,0,0
2002/11/5 1:00,0,0,0,0,0,0,0,0
2002/11/5 1:15,0,0,0,0,0,0,0,0
2002/11/5 1:30,0,0,0,0,0,0,0,0
2002/11/5 1:45,0,0,0,0,0,0,0,0
2002/11/5 2:00,0,0,0,0,0,0,0,0
2002/11/5 2:15,0,0,0,0,0,0,0,0
2002/11/5 2:30,0,0,0,0,0,0,0,0
2002/11/5 2:45,0,0,0,0,0,0,0,0
2002/11/5 3:00,0,0,0,0,0,0,0,0
2002/11/5 3:15,0,0,0,0,0,0,0,0
2002/11/5 3:30,0,0,0,0,0,0,0,0
2002/11/5 3:45,0,0,0,0,0,0,0,0
2002/11/5 4:00,0,0,0,0,0,0,0,0
2002/11/5 4:15,0,0,0,0,0,0,0,0
2002/11/5 4:30,0,0,0,0,0,0,0,0
2002/11/5 4:45,0,0,0,0,0,0,0,0
2002/11/5 5:00,0,0,0,0,0,0,0,0
2002/11/5 5:15,0,0,0,0,0,0,0,0
2002/11/5 5:30,0.008,0,4.420416,0,0,0,4.420416,0
2002/11/5 5:45,0.01,0,5.52552,0,0,0,5.52552,0
2002/11/5 6:00,0.014,0,7.735728,0,0,0,7.735728,0
2002/11/5 6:15,0.012,0,6.630624,0,0,0,6.630624,0
2002/11/5 6:30,0.01,0,5.52552,0,0,0,5.52552,0
2002/11/5 6:45,0.008,0,4.420416,0,0,0,4.420416,0
2002/11/5 7:00,0.006,0,3.315312,0,0,0,3.315312,0
2002/11/5 7:15,0.004,0,2.210208,0,0,0,2.210208,0
2002/11/5 7:30,0.004,0,2.210208,0,0,0,2.210208,0
2002/11/5 7:45,0,0,0,0,0,0,0,0
2002/11/5 8:00,0,0,0,0,0,0,0,0
2002/11/5 8:15,0,0,0,0,0,0,0,0
2002/11/5 8:30,0,0,0,0,0,0,0,0
2002/11/5 8:45,0,0,0,0,0,0,0,0
2002/11/5 9:00,0,0,0,0,0,0,0,0
2002/11/5 9:15,0,0,0,0,0,0,0,0
2002/11/5 9:30,0,0,0,0,0,0,0,0
2002/11/5 9:45,0,0,0,0,0,0,0,0
2002/11/5 10:00,0,0,0,0,0,0,0,0
2002/11/5 10:15,0,0,0,0,0,0,0,0
2002/11/5 10:30,0,0,0,0,0,0,0,0
2002/11/5 10:45,0,0,0,0,0,0,0,0
2002/11/5 11:00,0,0,0,0,0,0,0,0
2002/11/5 11:15,0,0,0,0,0,0,0,0
2002/11/5 11:30,0,0,0,0,0,0,0,0
2002/11/5 11:45,0,0,0,0,0,0,0,0
2002/11/5 12:00,0,0,0,0,0,0,0,0
2002/11/5 12:15,0,0,0,0,0,0,0,0
2002/11/5 12:30,0,0,0,0,0,0,0,0
2002/11/5 12:45,0,0,0,0,0,0,0,0
2002/11/5 13:00,0,0,0,0,0,0,0,0
2002/11/5 13:15,0,0,0,0,0,0,0,0
2002/11/5 13:30,0,0,0,0,0,0,0,0
2002/11/5 13:45,0,0,0,0,0,0,0,0
2002/11/5 14:00,0,0,0,0,0,0,0,0
2002/11/5 14:15,0,0,0,0,0,0,0,0
2002/11/5 14:30,0.01,0,5.52552,0,0,0,5.52552,0
2002/11/5 14:45,0.016,0,8.840832,0,5.52552,0,3.315312,0
2002/11/5 15:00,0.03,0,16.57656,0,15.471456,0,1.105104,0
2002/11/5 15:15,0,0,0,0,0,0,0,0
2002/11/5 15:30,0,0,0,0,0,0,0,0
2002/11/5 15:45,0,0,0,0,0,0,0,0
2002/11/5 16:00,0,0,0,0,0,0,0,0
2002/11/5 16:15,0,0,0,0,0,0,0,0
2002/11/5 16:30,0,0,0,0,0,0,0,0
2002/11/5 16:45,0,0,0,0,0,0,0,0
2002/11/5 17:00,0,0,0,0,0,0,0,0
2002/11/5 17:15,0,0,0,0,0,0,0,0
2002/11/5 17:30,0,0,0,0,0,0,0,0
2002/11/5 17:45,0,0,0,0,0,0,0,0
2002/11/5 18:00,0,0,0,0,0,0,0,0
2002/11/5 18:15,0.004,0,2.210208,0,0,0,2.210208,0
2002/11/5 18:30,0.014,0,7.735728,0,0,0,7.735728,0
2002/11/5 18:45,0,0,0,0,0,0,0,0
2002/11/5 19:00,0.046,0,25.417392,0,22.10208,0,3.315312,0
2002/11/5 19:15,0.058,0,32.048016,0,29.837808,0,2.210208,0
2002/11/5 19:30,0.094,0,51.939888,0,51.939888,0,0,0
2002/11/5 19:45,0.02,0,11.05104,0,0,0,11.05104,0
2002/11/5 20:00,0.008,0,4.420416,0,0,0,4.420416,0
2002/11/5 20:15,0.002,0,1.105104,0,0,0,1.105104,0
2002/11/5 20:30,0,0,0,0,0,0,0,0
2002/11/5 20:45,0,0,0,0,0,0,0,0
2002/11/5 21:00,0,0,0,0,0,0,0,0
2002/11/5 21:15,0.012,0,6.630624,0,0,0,6.630624,0
2002/11/5 21:30,0.006,0,3.315312,0,0,0,3.315312,0
2002/11/5 21:45,0.018,0,9.945936,0,9.945936,0,0,0
2002/11/5 22:00,0.012,0,6.630624,0,6.630624,0,0,0
2002/11/5 22:15,0,0,0,0,0,0,0,0
2002/11/5 22:30,0,0,0,0,0,0,0,0
2002/11/5 22:45,0,0,0,0,0,0,0,0
2002/11/5 23:00,0.006,0,3.315312,0,0,0,3.315312,0
2002/11/5 23:15,0.006,0,3.315312,0,0,0,3.315312,0
2002/11/5 23:30,0.004,0,2.210208,0,0,0,2.210208,0
2002/11/5 23:45,0.006,0,3.315312,0,0,0,3.315312,0
2002/11/6 0:00,0.004,0,2.210208,0,0,0,2.210208,0
2002/11/6 0:15,0.006,0,3.315312,0,0,0,3.315312,0
2002/11/6 0:30,0.004,0,2.210208,0,0,0,2.210208,0
2002/11/6 0:45,0.004,0,2.210208,0,0,0,2.210208,0
2002/11/6 1:00,0.002,0,1.105104,0,0,0,1.105104,0
2002/11/6 1:15,0,0,0,0,0,0,0,0
2002/11/6 1:30,0,0,0,0,0,0,0,0
2002/11/6 1:45,0,0,0,0,0,0,0,0
2002/11/6 2:00,0,0,0,0,0,0,0,0
2002/11/6 2:15,0,0,0,0,0,0,0,0
2002/11/6 2:30,0,0,0,0,0,0,0,0
2002/11/6 2:45,0,0,0,0,0,0,0,0
2002/11/6 3:00,0,0,0,0,0,0,0,0
2002/11/6 3:15,0,0,0,0,0,0,0,0
2002/11/6 3:30,0,0,0,0,0,0,0,0
2002/11/6 3:45,0,0,0,0,0,0,0,0
2002/11/6 4:00,0,0,0,0,0,0,0,0
2002/11/6 4:15,0,0,0,0,0,0,0,0
2002/11/6 4:30,0,0,0,0,0,0,0,0
2002/11/6 4:45,0,0,0,0,0,0,0,0
2002/11/6 5:00,0,0,0,0,0,0,0,0
2002/11/6 5:15,0,0,0,0,0,0,0,0
2002/11/6 5:30,0.046,0,25.417392,0,25.417392,0,0,0
2002/11/6 5:45,0.054,0,29.837808,0,23.207184,0,6.630624,0
2002/11/6 6:00,0.026,0,14.366352,0,5.52552,0,8.840832,0
2002/11/6 6:15,0.01,0,5.52552,0,0,0,5.52552,0
2002/11/6 6:30,0.002,0,1.105104,0,0,0,1.105104,0
2002/11/6 6:45,0.004,0,2.210208,0,0,0,2.210208,0
2002/11/6 7:00,0.004,0,2.210208,0,0,0,2.210208,0
2002/11/6 7:15,0.004,0,2.210208,0,0,0,2.210208,0
2002/11/6 7:30,0.006,0,3.315312,0,0,0,3.315312,0
2002/11/6 7:45,0,0,0,0,0,0,0,0
2002/11/6 8:00,0.006,0,3.315312,0,0,0,3.315312,0
2002/11/6 8:15,0.004,0,2.210208,0,0,0,2.210208,0
2002/11/6 8:30,0.006,0,3.315312,0,0,0,3.315312,0
2002/11/6 8:45,0,0,0,0,0,0,0,0
2002/11/6 9:00,0,0,0,0,0,0,0,0
2002/11/6 9:15,0,0,0,0,0,0,0,0
2002/11/6 9:30,0,0,0,0,0,0,0,0
2002/11/6 9:45,0,0,0,0,0,0,0,0
2002/11/6 10:00,0,0,0,0,0,0,0,0
2002/11/6 10:15,0,0,0,0,0,0,0,0
2002/11/6 10:30,0,0,0,0,0,0,0,0
2002/11/6 10:45,0,0,0,0,0,0,0,0
2002/11/6 11:00,0,0,0,0,0,0,0,0
2002/11/6 11:15,0,0,0,0,0,0,0,0
2002/11/6 11:30,0,0,0,0,0,0,0,0
2002/11/6 11:45,0,0,0,0,0,0,0,0
2002/11/6 12:00,0,0,0,0,0,0,0,0
2002/11/6 12:15,0,0,0,0,0,0,0,0
2002/11/6 12:30,0,0,0,0,0,0,0,0
2002/11/6 12:45,0,0,0,0,0,0,0,0
2002/11/6 13:00,0,0,0,0,0,0,0,0
2002/11/6 13:15,0,0,0,0,0,0,0,0
2002/11/6 13:30,0,0,0,0,0,0,0,0
2002/11/6 13:45,0,0,0,0,0,0,0,0
2002/11/6 14:00,0,0,0,0,0,0,0,0
2002/11/6 14:15,0,0,0,0,0,0,0,0
2002/11/6 14:30,0,0,0,0,0,0,0,0
2002/11/6 14:45,0,0,0,0,0,0,0,0
2002/11/6 15:00,0,0,0,0,0,0,0,0
2002/11/6 15:15,0,0,0,0,0,0,0,0
2002/11/6 15:30,0,0,0,0,0,0,0,0
2002/11/6 15:45,0,0,0,0,0,0,0,0
2002/11/6 16:00,0,0,0,0,0,0,0,0
2002/11/6 16:15,0,0,0,0,0,0,0,0
2002/11/6 16:30,0,0,0,0,0,0,0,0
2002/11/6 16:45,0.012,0,6.630624,0,0,0,6.630624,0
2002/11/6 17:00,0.002,0,1.105104,0,0,0,1.105104,0
2002/11/6 17:15,0.002,0,1.105104,0,0,0,1.105104,0
2002/11/6 17:30,0.028,0,15.471456,0,12.156144,0,3.315312,0
2002/11/6 17:45,0.008,0,4.420416,0,0,0,4.420416,0
2002/11/6 18:00,0.008,0,4.420416,0,0,0,4.420416,0
2002/11/6 18:15,0.062,0,34.258224,0,32.048016,0,2.210208,0
2002/11/6 18:30,0.036,0,19.891872,0,17.681664,0,2.210208,0
2002/11/6 18:45,0.002,0,1.105104,0,0,0,1.105104,0
2002/11/6 19:00,0,0,0,0,0,0,0,0
2002/11/6 19:15,0.002,0,1.105104,0,0,0,1.105104,0
2002/11/6 19:30,0.11,0,60.78072,0,60.78072,0,0,0
2002/11/6 19:45,0.026,0,14.366352,0,8.840832,0,5.52552,0
2002/11/6 20:00,0.012,0,6.630624,0,0,0,6.630624,0
2002/11/6 20:15,0.008,0,4.420416,0,0,0,4.420416,0
2002/11/6 20:30,0.014,0,7.735728,0,0,0,7.735728,0
2002/11/6 20:45,0.014,0,7.735728,0,0,0,7.735728,0
2002/11/6 21:00,0.014,0,7.735728,0,0,0,7.735728,0
2002/11/6 21:15,0.012,0,6.630624,0,0,0,6.630624,0
2002/11/6 21:30,0.042,0,23.207184,0,18.786768,0,4.420416,0
2002/11/6 21:45,0.06,0,33.15312,0,29.837808,0,3.315312,0
2002/11/6 22:00,0.018,0,9.945936,0,4.420416,0,5.52552,0
2002/11/6 22:15,0.01,0,5.52552,0,0,0,5.52552,0
2002/11/6 22:30,0.022,0,12.156144,0,0,0,12.156144,0
2002/11/6 22:45,0.01,0,5.52552,0,0,0,5.52552,0
2002/11/6 23:00,0.012,0,6.630624,0,0,0,6.630624,0
2002/11/6 23:15,0.004,0,2.210208,0,0,0,2.210208,0
2002/11/6 23:30,0,0,0,0,0,0,0,0
2002/11/6 23:45,0,0,0,0,0,0,0,0
2002/11/7 0:00,0,0,0,0,0,0,0,0
2002/11/7 0:15,0,0,0,0,0,0,0,0
2002/11/7 0:30,0,0,0,0,0,0,0,0
2002/11/7 0:45,0,0,0,0,0,0,0,0
2002/11/7 1:00,0,0,0,0,0,0,0,0
2002/11/7 1:15,0,0,0,0,0,0,0,0
2002/11/7 1:30,0,0,0,0,0,0,0,0
2002/11/7 1:45,0,0,0,0,0,0,0,0
2002/11/7 2:00,0,0,0,0,0,0,0,0
2002/11/7 2:15,0,0,0,0,0,0,0,0
2002/11/7 2:30,0,0,0,0,0,0,0,0
2002/11/7 2:45,0,0,0,0,0,0,0,0
2002/11/7 3:00,0,0,0,0,0,0,0,0
2002/11/7 3:15,0,0,0,0,0,0,0,0
2002/11/7 3:30,0,0,0,0,0,0,0,0
2002/11/7 3:45,0,0,0,0,0,0,0,0
2002/11/7 4:00,0,0,0,0,0,0,0,0
2002/11/7 4:15,0,0,0,0,0,0,0,0
2002/11/7 4:30,0,0,0,0,0,0,0,0
2002/11/7 4:45,0,0,0,0,0,0,0,0
2002/11/7 5:00,0,0,0,0,0,0,0,0
2002/11/7 5:15,0,0,0,0,0,0,0,0
2002/11/7 5:30,0,0,0,0,0,0,0,0
2002/11/7 5:45,0,0,0,0,0,0,0,0
2002/11/7 6:00,0,0,0,0,0,0,0,0
2002/11/7 6:15,0.018,0,9.945936,0,7.735728,0,2.210208,0
2002/11/7 6:30,0.002,0,1.105104,0,0,0,1.105104,0
2002/11/7 6:45,0,0,0,0,0,0,0,0
2002/11/7 7:00,0.008,0,4.420416,0,4.420416,0,0,0
2002/11/7 7:15,0.006,0,3.315312,0,0,0,3.315312,0
2002/11/7 7:30,0.004,0,2.210208,0,0,0,2.210208,0
2002/11/7 7:45,0.004,0,2.210208,0,0,0,2.210208,0
2002/11/7 8:00,0.002,0,1.105104,0,0,0,1.105104,0
2002/11/7 8:15,0.002,0,1.105104,0,0,0,1.105104,0
2002/11/7 8:30,0.002,0,1.105104,0,0,0,1.105104,0
2002/11/7 8:45,0.004,0,2.210208,0,0,0,2.210208,0
2002/11/7 9:00,0.008,0,4.420416,0,0,0,4.420416,0
2002/11/7 9:15,0.01,0,5.52552,0,0,0,5.52552,0
2002/11/7 9:30,0,0,0,0,0,0,0,0
2002/11/7 9:45,0,0,0,0,0,0,0,0
2002/11/7 10:00,0,0,0,0,0,0,0,0
2002/11/7 10:15,0,0,0,0,0,0,0,0
2002/11/7 10:30,0,0,0,0,0,0,0,0
2002/11/7 10:45,0,0,0,0,0,0,0,0
2002/11/7 11:00,0,0,0,0,0,0,0,0
2002/11/7 11:15,0,0,0,0,0,0,0,0
2002/11/7 11:30,0,0,0,0,0,0,0,0
2002/11/7 11:45,0,0,0,0,0,0,0,0
2002/11/7 12:00,0,0,0,0,0,0,0,0
2002/11/7 12:15,0,0,0,0,0,0,0,0
2002/11/7 12:30,0,0,0,0,0,0,0,0
2002/11/7 12:45,0,0,0,0,0,0,0,0
2002/11/7 13:00,0,0,0,0,0,0,0,0
2002/11/7 13:15,0,0,0,0,0,0,0,0
2002/11/7 13:30,0,0,0,0,0,0,0,0
2002/11/7 13:45,0,0,0,0,0,0,0,0
2002/11/7 14:00,0,0,0,0,0,0,0,0
2002/11/7 14:15,0.004,0,2.210208,0,0,0,2.210208,0
2002/11/7 14:30,0.012,0,6.630624,0,0,0,6.630624,0
2002/11/7 14:45,0.012,0,6.630624,0,0,0,6.630624,0